TimeEDT,TemperatureF,Dew PointF,Humidity,Sea Level PressureIn,VisibilityMPH,Wind Direction,Wind SpeedMPH,Gust SpeedMPH,PrecipitationIn,Events,Conditions,WindDirDegrees,DateUTC
12:52 AM,28.9,19.9,69,29.78,10.0,SW,3.5,-,N/A,,Scattered Clouds,230,2013-03-14 04:52:00
1:52 AM,26.1,21.0,81,29.79,10.0,Calm,Calm,-,N/A,,Overcast,0,2013-03-14 05:52:00
2:52 AM,30.0,19.9,66,29.78,10.0,West,8.1,-,N/A,,Overcast,280,2013-03-14 06:52:00
3:52 AM,28.9,18.0,64,29.77,10.0,West,5.8,-,N/A,,Overcast,270,2013-03-14 07:52:00
5:52 AM,26.1,14.0,60,29.78,10.0,Variable,3.5,-,N/A,,Mostly Cloudy,0,2013-03-14 09:52:00
6:52 AM,26.1,12.9,58,29.78,10.0,West,6.9,-,N/A,,Overcast,280,2013-03-14 10:52:00
7:52 AM,26.1,12.9,58,29.79,10.0,West,9.2,-,N/A,,Overcast,270,2013-03-14 11:52:00
8:52 AM,26.1,10.0,51,29.80,10.0,West,9.2,20.7,N/A,,Overcast,270,2013-03-14 12:52:00
10:52 AM,26.1,10.9,53,29.78,10.0,WNW,11.5,18.4,N/A,,Overcast,290,2013-03-14 14:52:00
11:52 AM,25.0,10.0,53,29.77,10.0,West,11.5,18.4,N/A,,Overcast,270,2013-03-14 15:52:00
12:52 PM,25.0,10.0,53,29.76,10.0,West,12.7,21.9,N/A,,Overcast,260,2013-03-14 16:52:00
1:52 PM,25.0,10.0,53,29.75,10.0,NW,11.5,23.0,N/A,,Overcast,310,2013-03-14 17:52:00
2:52 PM,26.1,10.0,51,29.74,10.0,West,15.0,23.0,0.00,,Overcast,270,2013-03-14 18:52:00
3:52 PM,25.0,10.0,53,29.75,10.0,West,15.0,23.0,N/A,,Overcast,270,2013-03-14 19:52:00
4:52 PM,23.0,9.0,55,29.76,10.0,West,11.5,19.6,N/A,,Overcast,260,2013-03-14 20:52:00
5:52 PM,21.9,7.0,53,29.79,10.0,WNW,11.5,20.7,N/A,,Overcast,290,2013-03-14 21:52:00
6:52 PM,21.0,5.0,50,29.82,10.0,NW,10.4,21.9,N/A,,Overcast,320,2013-03-14 22:52:00
7:52 PM,19.0,3.0,50,29.84,10.0,NW,12.7,19.6,N/A,,Mostly Cloudy,310,2013-03-14 23:52:00
8:52 PM,18.0,3.9,54,29.85,10.0,NNW,9.2,21.9,N/A,,Partly Cloudy,340,2013-03-15 00:52:00
9:52 PM,18.0,3.9,54,29.85,10.0,NNW,6.9,-,N/A,,Clear,330,2013-03-15 01:52:00
10:52 PM,18.0,5.0,57,29.85,10.0,NW,10.4,19.6,N/A,,Mostly Cloudy,320,2013-03-15 02:52:00
11:52 PM,17.1,7.0,65,29.85,10.0,NNW,5.8,-,N/A,,Overcast,330,2013-03-15 03:52:00